Tracking 17147 objects as of 4-July-2015
HD Live streaming from Space Station

IRIDIUM 18

Track IRIDIUM 18 now!
10-day predictions
IRIDIUM 18 is classified as:


NORAD ID: 24872
Int'l Code: 1997-034D
Perigee: 783.2 km
Apogee: 786.4 km
Inclination: 86.4 °
Period: 100.4 minutes
Semi major axis: 7155 km
RCS: 3.8649 m2 (large)
Launch date: July 9, 1997
Source: United States (US)
Your satellite tracking list
Your tracking list is empty





NASA's NSSDC Master Catalog

Two Line Element Set (TLE):
1 24872U 97034D   15184.55381876  .00000143  00000-0  44093-4 0  9990
2 24872 086.3971 320.7427 0002282 096.6091 263.5364 14.34216122941480

Source of the keplerian elements: AFSPC

N2YO: 262